Weather History for Baker, OR

Change the Weather History Date:

Monday, February 18, 2013

  Actual Average Record
Temperature  
Mean Temperature 29 °F 30 °F  
Max Temperature 40 °F 41 °F 60 °F (1977)
Min Temperature 18 °F 19 °F -3 °F (1952)
Degree Days  
Heating Degree Days 36 35  
Month to date heating degree days 600 663  
Since 1 July heating degree days 5053 5186  
Cooling Degree Days 0 0  
Month to date cooling degree days 0 0  
Year to date cooling degree days 0 0  
Moisture  
Dew Point 21 °F    
Average Humidity 72    
Maximum Humidity 92    
Minimum Humidity 52    
Precipitation  
Precipitation 0.00 in 0.02 in 0.26 in (1986)
Month to date precipitation 0.23 0.37  
Year to date precipitation 1.07 1.17  
Sea Level Pressure  
Sea Level Pressure 29.98 in    
Wind  
Wind Speed 8 mph (ESE)    
Max Wind Speed 23 mph    
Max Gust Speed 28 mph    
Visibility 10 miles    
Events      
T = Trace of Precipitation, MM = Missing Value Source: NWS Daily Summary

Daily Weather History Graph

Daily Weather History Graph

Search for Another Location

Airport:

Trip Planner

Search our weather history database for the weather conditions in past years. The results will help you decide how hot, cold, wet, or windy it might be!

Date:

Astronomy

Feb. 18, 2013 Rise Set
Actual Time 6:46 AM PST 5:24 PM PST
Civil Twilight 6:16 AM PST 5:54 PM PST
Nautical Twilight 5:42 AM PST 6:28 PM PST
Astronomical Twilight 5:08 AM PST 7:02 PM PST
Moon 11:06 AM PST (2/18) 1:37 AM PST (2/18)
Length of Visible Light 11h 37m
Length of Day
10h 37m
First Quarter, 59% of the Moon is Illuminated
Feb 18
First Quarter
Feb 25
Full
Mar 4
Last Quarter
Mar 11
New
Mar 19
First Quarter

Hourly Weather History & Observations

Time (PST) Temp. Windchill Dew Point Humidity Pressure Visibility Wind Dir Wind Speed Gust Speed Precip Events Conditions
12:53 AM 19.9 °F - 17.1 °F 89% 30.14 in 10.0 mi Calm Calm - N/A   Clear
1:53 AM 19.9 °F - 18.0 °F 92% 30.14 in 10.0 mi Calm Calm - N/A   Clear
2:53 AM 21.9 °F 15.7 °F 18.0 °F 85% 30.12 in 10.0 mi South 4.6 mph - N/A   Clear
3:53 AM 19.4 °F - 15.8 °F 86% 30.03 in 10.0 mi Calm Calm - N/A   Clear
4:53 AM 19.9 °F 13.4 °F 17.1 °F 89% 30.11 in 10.0 mi West 4.6 mph - N/A   Clear
5:53 AM 21.9 °F 15.7 °F 18.0 °F 85% 30.11 in 10.0 mi SW 4.6 mph - N/A   Clear
6:53 AM 21.0 °F - 17.1 °F 85% 30.10 in 10.0 mi Calm Calm - N/A   Clear
7:53 AM 27.0 °F 20.5 °F 21.9 °F 81% 30.09 in 10.0 mi SSE 5.8 mph - N/A   Clear
8:53 AM 32.0 °F 24.2 °F 25.0 °F 75% 30.07 in 10.0 mi ESE 9.2 mph - N/A   Scattered Clouds
9:53 AM 36.0 °F 27.5 °F 23.0 °F 59% 30.06 in 10.0 mi ESE 12.7 mph 21.9 mph N/A   Clear
10:53 AM 35.1 °F 24.8 °F 21.9 °F 59% 30.06 in 10.0 mi East 17.3 mph - N/A   Clear
11:53 AM 37.0 °F 26.7 °F 23.0 °F 57% 30.01 in 10.0 mi East 19.6 mph 25.3 mph N/A   Clear
12:53 PM 37.9 °F 28.2 °F 21.9 °F 53% 29.99 in 10.0 mi East 18.4 mph 25.3 mph N/A   Scattered Clouds
1:53 PM 37.0 °F 26.4 °F 21.0 °F 52% 29.96 in 10.0 mi East 20.7 mph 25.3 mph N/A   Partly Cloudy
2:53 PM 37.0 °F 26.7 °F 21.9 °F 54% 29.96 in 10.0 mi ESE 19.6 mph - N/A   Clear
3:53 PM 37.0 °F 29.3 °F 23.0 °F 57% 29.95 in 10.0 mi East 11.5 mph - N/A   Clear
4:53 PM 35.1 °F 27.9 °F 23.0 °F 61% 29.93 in 10.0 mi East 9.2 mph - N/A   Clear
5:53 PM 34.0 °F 28.8 °F 23.0 °F 64% 29.91 in 10.0 mi East 5.8 mph - N/A   Scattered Clouds
6:53 PM 33.1 °F 28.7 °F 23.0 °F 66% 29.89 in 10.0 mi ESE 4.6 mph - N/A   Mostly Cloudy
7:53 PM 32.0 °F - 23.0 °F 69% 29.85 in 10.0 mi Calm Calm - N/A   Mostly Cloudy
8:53 PM 33.1 °F 26.1 °F 23.0 °F 66% 29.82 in 10.0 mi East 8.1 mph - N/A   Overcast
9:53 PM 32.0 °F - 23.0 °F 69% 29.80 in 10.0 mi Calm Calm - N/A   Overcast
10:53 PM 32.0 °F - 24.1 °F 73% 29.77 in 10.0 mi Calm Calm - N/A   Overcast
11:53 PM 36.0 °F 29.0 °F 19.9 °F 52% 29.74 in 10.0 mi ESE 9.2 mph - N/A   Overcast